Regional Weather Roundup
Issued by NWS

Home | Current Version | Previous Version | Text Only | Print | Product List | Glossary On
Versions: 1 2 3 4 5 6 7 8 9 10 11 12 13 14 15 16 17 18 19 20 21 22 23 24 25 26 27 28 29 30 31 32 33 34 35 36 37 38 39 40 41 42 43 44 45 46 47 48 49 50
000
ASUS44 KLUB 261301
RWRTX
WEST TEXAS WEATHER ROUNDUP
NATIONAL WEATHER SERVICE LUBBOCK TX
800 AM CDT SUN APR 26 2015

NOTE: "FAIR" INDICATES FEW OR NO CLOUDS BELOW 12,000 FEET WITH NO
SIGNIFICANT WEATHER AND/OR OBSTRUCTIONS TO VISIBILITY.

TXZ004-006>008-010-012-014-016-OKZ002-261400-
TEXAS PANHANDLE/OKLAHOMA PANHANDLE

CITY           SKY/WX    TMP DP  RH WIND       PRES   REMARKS
AMARILLO       PTSUNNY   54  33  45 SW9       29.72R
BORGER         MOSUNNY   53  47  79 E13       29.72R
CANADIAN       CLOUDY    56  54  91 E14       29.74R
DALHART        PTSUNNY   46  36  68 N6        29.73R
DUMAS          PTSUNNY   48  43  82 E6        29.72R
GUYMON         CLOUDY    55  51  86 E17G23    29.74R
$$

TXZ026-029-035-045-048-261400-
SOUTHERN PANHANDLE/SOUTH PLAINS/ROLLING PLAINS

CITY           SKY/WX    TMP DP  RH WIND       PRES   REMARKS
CHILDRESS      SUNNY     56  43  61 N5        29.70R
LUBBOCK        PTSUNNY   55  35  47 S3        29.73R
$$

TXZ052-054-060>062-072-078-127-140-154-169-261400-
PERMIAN BASIN/CONCHO VALLEY/BIG COUNTRY/EDWARDS PLATEAU

CITY           SKY/WX    TMP DP  RH WIND       PRES   REMARKS
ABILENE        SUNNY     63  46  54 S3        29.71S
BRADY          SUNNY     59  57  94 SE3       29.72S
JUNCTION       MOSUNNY   59  54  83 CALM      29.73F
MIDLAND        CLEAR     59  46  62 SW3       29.74
ODESSA         CLEAR     58  45  62 SW5       29.75R
SAN ANGELO     SUNNY     62  56  80 S6        29.70R
SWEETWATER     SUNNY     62  48  60 SW7       29.75S
WINK           PTCLDY    50  28  42 CALM      29.72S
$$

TXZ055-058-074-075-080-082-261400-
FAR WEST/SOUTHWEST MOUNTAINS/TRANS PECOS

CITY           SKY/WX    TMP DP  RH WIND       PRES   REMARKS
DRYDEN           N/A     64  52  64 NW8       29.71R
EL PASO        CLOUDY    61  26  26 SW13      29.77S
FORT STOCKTON  CLEAR     58  30  34 SW13      29.75R
MARFA          CLEAR     43  32  65 E5        29.87R
$$

TXZ014-016-019-021>030-083-261400
TEXAS TECH WEST TEXAS MESONET/TEXAS PANHANDLE/NORTHERN SOUTH PLAINS

CITY           SKY/WX    TMP DP  RH WIND       PRES   REMARKS
ABERNATHY 5ENE   N/A     48  36  61 W3        29.73S
AMARILLO 9NNE    N/A     53  35  50 S1        29.71R
AMARILLO 7SSE    N/A     52  32  45 SW9       29.73R
AMHERST 1NE      N/A     51  30  46 N6        29.73S
BOOTLEG 11WNW    N/A     49  26  39 SW9       29.76R
CANADIAN 6E      N/A     55  52  90 E20       29.73R
CAPROCK CYN SP   N/A     63  28  27 W13       29.70S
CHILDRESS 2NNE   N/A     55  41  60 W6        29.69R
CLARENDON 2WSW   N/A     48  39  70 CALM      29.73R
DIMMITT 2NE      N/A     51  28  39 SW8       29.74S
FLOYDADA 2NNE    N/A     46  35  64 W7        29.72S
FRIONA 2NE       N/A     49  26  41 SW7       29.75R
GOODLETT 3W      N/A     56  44  65 CALM      29.68R
HART 3N          N/A     44  30  56 W7        29.74S
HEREFORD 2NW     N/A     48  29  48 S8        29.74R
MCLEAN 1E        N/A     51  49  94 NE9       29.71R
MEMPHIS 1NE      N/A     53  46  77 N6        29.70F
MULESHOE 2SSW    N/A     41  32  69 W2        29.74S
OLTON 6S         N/A     47  32  55 W6        29.74R
PALO DURO SP     N/A     52  32  46 S3        29.75R
PAMPA 2E         N/A     51  50  99 E8        29.73R
PLAINVIEW 1S     N/A     49  34  56 W5        29.73R
SILVERTON 7ESE   N/A     49  37  62 W5        29.73R
TULIA 2ENE       N/A     54  30  40 SW10      29.73R
UMBARGER 3NNE    N/A     45  32  60 SW8       29.73R
$$

TXZ033>036-039>041-045>048-261400
TEXAS TECH WEST TEXAS MESONET/SOUTH PLAINS

CITY           SKY/WX    TMP DP  RH WIND       PRES   REMARKS
AIKEN 3WSW       N/A     47  35  64 W5        29.74S
ANDREWS 2NE      N/A     60  42  51 S9        29.74S
ANTON 6SSW       N/A     53  30  40 SW9       29.73R
BROWNFIELD 2S    N/A     51  31  46 SW7       29.74S
DENVR CTY 7WNW   N/A     48  31  51 S5        29.74S
GAIL 2ESE        N/A     56  37  49 SW1       29.72S
LAMESA 2SE       N/A     52  34  51 W5        29.74S
LEVELLAND 4S     N/A     55  29  37 SW9       29.73S
LUBBOCK 3WNW     N/A     56  30  37 S3        29.74R
MORTON 1ENE      N/A     58  25  27 SW12      29.73R
ODONNELL 1N      N/A     51  32  49 SW5       29.74S
PLAINS 3N        N/A     49  34  56 W7        29.74S
RALLS 1SE        N/A     54  32  42 SW10      29.74S
REESE CENTER     N/A     51  31  46 S7        29.74R
SEAGRAVES 1SW    N/A     47  32  55 W2        29.74S
SEMINOLE 2NNE    N/A     53  27  37 SW5       29.74S
SLATON 2NE       N/A     57  29  35 SW10      29.73S
SNYDER 3E        N/A     56  44  65 S5        29.72S
SUNDOWN 8SW      N/A     49  33  55 SW6       29.74R
TAHOKA 3NNE      N/A     53  31  43 SW7       29.73S
WOLFFORTH 6SSW   N/A     51  32  48 S6        29.74S
$$

TXZ031-032-036>038-042>044-261400-
TEXAS TECH WEST TEXAS MESONET/ROLLING PLAINS

CITY           SKY/WX    TMP DP  RH WIND       PRES   REMARKS
ASPERMONT 3NE    N/A     56  46  68 W3        29.70R
FLUVANNA 3WNW    N/A     55  35  46 SW7       29.73R
GRAHAM 5SSW      N/A     56  29  35 W12       29.73S
GUTHRIE 10WSW    N/A     54  36  49 SW5       29.70R
HASKELL 1NW      N/A     55  46  71 SW7       29.69R
JAYTON 1SSE      N/A     53  38  58 W7        29.71R
KNOX CITY 3NW    N/A     53  47  78 SW3       29.69S
LK A HENRY 1NW   N/A     57  35  42 SW8       29.71S
NORTHFIELD 1S    N/A     53  42  64 NW5       29.70R
ODELL 4ENE       N/A     54  50  85 NE2       29.69R
PADUCAH 10SW     N/A     59  34  38 SW12      29.69R
POST 1NE         N/A     63  31  30 SW13      29.71S
RRING SPRGS 3N   N/A     54  37  52 SW9       29.71R
SEYMOUR 3NW      N/A     54  48  80 S5        29.68S
SPUR 1W          N/A     52  38  58 SW1       29.71R
WEINERT 2NNE     N/A     54  47  78 SW2       29.69S
WHITE RVR 6NE    N/A     59  28  31 SW3       29.72R
$$

TXZ052-054-060>062-072-078-127-140-154-169-261400-
TEXAS TECH WEST TEXAS MESONET/PERMIAN BASIN/
CONCHO VALLEY/BIG COUNTRY/EDWARDS PLATEAU

CITY           SKY/WX    TMP DP  RH WIND       PRES   REMARKS
COYANOSA 2N      N/A     49  29  44 SW3       29.73F
JUNCTION 1SSW    N/A     58  52  79 CALM      29.74S
MERTZON 3NNE     N/A     66  60  79 S10       29.72S
SAN ANGELO 7NW   N/A     54  48  80 CALM      29.71S
STRLNG CT 4WSW   N/A     52  46  77 W3        29.74R
ST LAWRNCE 5SW   N/A     55  44  66 W3        29.74R
SWEETWATR 11SW   N/A     62  50  66 S3        29.74R
WALL 1E          N/A     64  58  80 S2        29.71R
$$

TXZ055-058-074-075-080-082-261400-
TEXAS TECH WEST TEXAS MESONET/FAR WEST/SOUTHWEST MOUNTAINS/TRANS PECOS

CITY           SKY/WX    TMP DP  RH WIND       PRES   REMARKS
PRSMN GAP BBNP   N/A     52  30  43 SW2       29.79R
$$



USA.gov is the U.S. government's official web portal to all federal, state and local government web resources and services.